TimeMST,TemperatureF,Dew PointF,Humidity,Sea Level PressureIn,VisibilityMPH,Wind Direction,Wind SpeedMPH,Gust SpeedMPH,PrecipitationIn,Events,Conditions,WindDirDegrees,DateUTC
12:53 AM,48.0,28.9,48,29.60,10.0,West,17.3,25.3,N/A,,Mostly Cloudy,280,2012-12-03 07:53:00
1:53 AM,45.0,27.0,49,29.65,10.0,West,13.8,-,N/A,,Clear,270,2012-12-03 08:53:00
2:53 AM,41.0,24.1,51,29.72,10.0,WNW,11.5,17.3,N/A,,Clear,290,2012-12-03 09:53:00
3:53 AM,41.0,21.0,45,29.73,10.0,West,21.9,-,N/A,,Clear,260,2012-12-03 10:53:00
4:53 AM,39.9,21.0,47,29.75,10.0,West,16.1,25.3,N/A,,Clear,270,2012-12-03 11:53:00
5:53 AM,37.9,21.0,51,29.80,10.0,West,17.3,-,N/A,,Clear,270,2012-12-03 12:53:00
6:53 AM,37.0,21.0,52,29.83,10.0,WSW,15.0,-,N/A,,Clear,250,2012-12-03 13:53:00
7:53 AM,37.9,19.9,48,29.83,10.0,WSW,15.0,-,N/A,,Clear,250,2012-12-03 14:53:00
8:53 AM,42.1,19.9,41,29.85,10.0,WSW,15.0,25.3,N/A,,Clear,240,2012-12-03 15:53:00
9:53 AM,46.9,19.9,34,29.86,10.0,WSW,21.9,31.1,N/A,,Clear,250,2012-12-03 16:53:00
10:53 AM,50.0,19.0,29,29.86,10.0,West,25.3,32.2,N/A,,Clear,270,2012-12-03 17:53:00
11:53 AM,52.0,19.0,27,29.85,10.0,West,23.0,33.4,N/A,,Clear,270,2012-12-03 18:53:00
12:53 PM,52.0,17.1,25,29.86,10.0,West,31.1,40.3,N/A,,Clear,280,2012-12-03 19:53:00
1:53 PM,52.0,16.0,24,29.87,10.0,West,27.6,35.7,N/A,,Clear,280,2012-12-03 20:53:00
2:53 PM,52.0,17.1,25,29.88,10.0,West,28.8,33.4,N/A,,Clear,270,2012-12-03 21:53:00
3:53 PM,50.0,17.1,27,29.91,10.0,West,18.4,28.8,N/A,,Clear,270,2012-12-03 22:53:00
4:53 PM,48.0,18.0,30,29.95,10.0,West,16.1,-,N/A,,Clear,260,2012-12-03 23:53:00
5:53 PM,45.0,18.0,34,29.98,10.0,West,15.0,-,N/A,,Clear,260,2012-12-04 00:53:00
6:53 PM,43.0,19.0,38,30.01,10.0,West,12.7,-,N/A,,Clear,280,2012-12-04 01:53:00
7:53 PM,42.1,19.9,41,30.02,10.0,West,13.8,-,N/A,,Clear,280,2012-12-04 02:53:00
8:53 PM,42.1,19.9,41,30.04,10.0,West,11.5,-,N/A,,Clear,280,2012-12-04 03:53:00
9:53 PM,41.0,19.0,41,30.06,10.0,West,15.0,-,N/A,,Clear,280,2012-12-04 04:53:00
11:53 PM,36.0,19.9,52,30.10,10.0,West,11.5,-,N/A,,Clear,270,2012-12-04 06:53:00